Weather History for Ashland, WI

Change the Weather History Date:

Tuesday, April 2, 2013

  Actual Average Record
Temperature  
Mean Temperature 26 °F -  
Max Temperature 36 °F 42 °F 60 °F (1991)
Min Temperature 17 °F 22 °F 0 °F (1975)
Degree Days  
Heating Degree Days 38    
Moisture  
Dew Point 10 °F    
Average Humidity 52    
Maximum Humidity 74    
Minimum Humidity 31    
Precipitation  
Precipitation 0.00 in - - ()
Sea Level Pressure  
Sea Level Pressure 30.28 in    
Wind  
Wind Speed 6 mph (WNW)    
Max Wind Speed 9 mph    
Max Gust Speed 17 mph    
Visibility 10 miles    
Events      
Averages and records for this station are not official NWS values.
T = Trace of Precipitation, MM = Missing Value Source: NWS Daily Summary

Daily Weather History Graph

Daily Weather History Graph

Search for Another Location

Airport:

Trip Planner

Search our weather history database for the weather conditions in past years. The results will help you decide how hot, cold, wet, or windy it might be!

Date:

Astronomy

Apr. 02, 2013 Rise Set
Actual Time 6:40 AM CDT 7:34 PM CDT
Civil Twilight 6:10 AM CDT 8:05 PM CDT
Nautical Twilight 5:33 AM CDT 8:41 PM CDT
Astronomical Twilight 4:55 AM CDT 9:20 PM CDT
Moon 1:54 AM CDT (4/2) 11:17 AM CDT (4/2)
Length of Visible Light 13h 55m
Length of Day
12h 53m
Waning Gibbous, 55% of the Moon is Illuminated
Apr 2
Waning Gibbous
Apr 2
Last Quarter
Apr 10
New
Apr 18
First Quarter
Apr 25
Full

Hourly Weather History & Observations

Time (CDT) Temp. Windchill Dew Point Humidity Pressure Visibility Wind Dir Wind Speed Gust Speed Precip Events Conditions
12:53 AM 23.0 °F 15.8 °F 10.9 °F 60% 30.19 in 10.0 mi WSW 5.8 mph - N/A   Clear
1:53 AM 21.0 °F 14.6 °F 10.9 °F 65% 30.20 in 10.0 mi West 4.6 mph - N/A   Clear
2:53 AM 21.0 °F 12.4 °F 10.9 °F 65% 30.21 in 10.0 mi West 6.9 mph - N/A   Clear
3:53 AM 19.9 °F 11.1 °F 10.9 °F 68% 30.21 in 10.0 mi West 6.9 mph - N/A   Clear
4:53 AM 19.0 °F 10.0 °F 10.9 °F 71% 30.21 in 10.0 mi West 6.9 mph - N/A   Clear
5:53 AM 17.1 °F 7.6 °F 10.0 °F 74% 30.22 in 10.0 mi West 6.9 mph - N/A   Clear
6:53 AM 18.0 °F 7.7 °F 10.9 °F 74% 30.24 in 10.0 mi West 8.1 mph - N/A   Clear
7:53 AM 19.9 °F 11.1 °F 12.0 °F 71% 30.26 in 10.0 mi West 6.9 mph - N/A   Clear
8:53 AM 24.1 °F 18.2 °F 14.0 °F 65% 30.27 in 10.0 mi West 4.6 mph - N/A   Scattered Clouds
9:53 AM 27.0 °F 23.0 °F 14.0 °F 58% 30.28 in 10.0 mi West 3.5 mph - N/A   Scattered Clouds
10:53 AM 28.9 °F 22.8 °F 14.0 °F 54% 30.28 in 10.0 mi NW 5.8 mph - N/A   Clear
11:53 AM 30.9 °F 26.2 °F 12.0 °F 46% 30.29 in 10.0 mi Variable 4.6 mph - N/A   Clear
12:53 PM 33.1 °F 28.7 °F 10.0 °F 38% 30.29 in 10.0 mi Variable 4.6 mph - N/A   Partly Cloudy
1:53 PM 34.0 °F 28.8 °F 9.0 °F 35% 30.29 in 10.0 mi NNW 5.8 mph - N/A   Clear
2:53 PM 34.0 °F 26.6 °F 9.0 °F 35% 30.29 in 10.0 mi NW 9.2 mph 17.3 mph N/A   Clear
3:53 PM 36.0 °F 30.3 °F 10.0 °F 34% 30.29 in 10.0 mi NW 6.9 mph - N/A   Clear
4:53 PM 36.0 °F 30.3 °F 8.1 °F 31% 30.29 in 10.0 mi WNW 6.9 mph - N/A   Clear
5:53 PM 35.1 °F 27.9 °F 9.0 °F 34% 30.31 in 10.0 mi WNW 9.2 mph - N/A   Clear
6:53 PM 34.0 °F 31.0 °F 9.0 °F 35% 30.32 in 10.0 mi NW 3.5 mph - N/A   Clear
7:53 PM 30.0 °F 25.2 °F 7.0 °F 38% 30.32 in 10.0 mi WNW 4.6 mph - N/A   Clear
8:53 PM 28.0 °F 24.2 °F 5.0 °F 38% 30.33 in 10.0 mi WNW 3.5 mph - N/A   Clear
9:53 PM 27.0 °F 23.0 °F 6.1 °F 41% 30.36 in 10.0 mi NNW 3.5 mph - N/A   Clear
10:53 PM 21.9 °F - 8.1 °F 55% 30.37 in 10.0 mi Calm Calm - N/A   Clear
11:53 PM 23.0 °F 18.4 °F 8.1 °F 53% 30.38 in 10.0 mi West 3.5 mph - N/A   Clear